"startDT [UTC]","vpos","CH4 [ppm]","stdev(CH4) [ppm]","CO2 [ppm]","stdev(CO2) [ppm]","H2O [ppm]","stdev(H2O)","p_LGR [torr]","T_LGR [C]","mt1_LGR [us]","mt2_LGR [us]","T_ECpre [C]","T_EC1 [C]","T_EC2 [C]","p_inlet [hPa]","p_in [hPa]","p_out [hPa]","T_inlet [C]","RH_inlet [%]","dwpt_inlet [C]","T_vent [C]","RH_vent [%]","dwpt_vent [C]","flow_vent [l min-1]","flow_inlet [l min-1]","dwpt_sample [C]","T_room [C]"
2013-05-23 00:00:00,0.0,1.9005,0.0009,408.66,0.28,213.8,32.4,138.16,25.76,24.62,36.32,0.04,-272.76,-272.76,-36,551,-905,18.6,21.0,-4.2,19.0,21.2,-3.7,5.73,2.35,-24.5,25.2
2013-05-23 00:01:00,0.0,1.9006,0.0009,408.68,0.25,207.8,34.3,138.16,25.76,24.62,36.32,0.04,-272.76,-272.76,-36,551,-905,18.6,21.2,-4.0,19.0,21.5,-3.5,5.73,2.41,-24.5,25.2
2013-05-23 00:02:00,0.0,1.9006,0.0009,408.66,0.25,205.5,36.7,138.16,25.76,24.62,36.32,0.04,-272.76,-272.75,-36,551,-905,18.6,21.2,-4.1,19.0,21.4,-3.5,5.73,2.29,-24.5,25.2
2013-05-23 00:03:00,0.0,1.9001,0.0008,408.71,0.31,209.2,32.0,138.16,25.77,24.62,36.31,0.04,-272.76,-272.76,-36,551,-905,18.6,21.1,-4.1,19.0,21.4,-3.6,5.73,2.40,-24.5,25.2
2013-05-23 00:04:00,0.0,1.9005,0.0009,408.62,0.28,209.0,35.9,138.16,25.77,24.62,36.32,0.04,-272.76,-272.76,-36,551,-905,18.6,20.9,-4.2,19.0,21.2,-3.7,5.73,2.36,-24.5,25.2
2013-05-23 00:05:00,0.0,1.9003,0.0009,408.65,0.27,212.0,33.8,138.16,25.77,24.62,36.32,0.04,-272.75,-272.75,-36,551,-905,18.6,21.3,-4.0,19.0,21.5,-3.5,5.73,2.30,-24.5,25.2
2013-05-23 00:06:00,0.0,1.9005,0.0008,408.62,0.36,207.2,34.1,138.16,25.78,24.62,36.32,0.04,-272.76,-272.76,-36,551,-905,18.6,20.9,-4.3,19.0,21.1,-3.7,5.73,2.43,-24.5,25.2
2013-05-23 00:07:00,0.0,1.9006,0.0008,408.72,0.25,211.8,28.3,138.16,25.78,24.62,36.32,0.04,-272.76,-272.76,-36,551,-905,18.6,20.8,-4.3,19.0,21.0,-3.8,5.73,2.30,-24.5,25.2
2013-05-23 00:08:00,0.0,1.9006,0.0007,408.80,0.27,211.3,33.5,138.16,25.79,24.62,36.30,0.04,-272.75,-272.76,-36,551,-905,18.6,21.0,-4.2,19.0,21.2,-3.7,5.73,2.35,-24.5,25.2
2013-05-23 00:09:00,0.0,1.9007,0.0009,408.66,0.29,204.9,36.8,138.16,25.79,24.62,36.31,0.04,-272.75,-272.75,-36,551,-905,18.6,20.7,-4.3,19.0,20.9,-3.8,5.73,2.40,-24.5,25.2
2013-05-23 00:10:00,0.0,1.9003,0.0008,408.68,0.27,200.8,26.0,138.16,25.79,24.62,36.31,0.04,-272.76,-272.76,-36,551,-905,18.6,20.4,-4.6,19.0,20.6,-4.0,5.73,2.29,-24.5,25.2
2013-05-23 00:11:00,0.0,1.9005,0.0008,408.53,0.32,202.4,32.4,138.16,25.80,24.62,36.31,0.04,-272.75,-272.76,-36,551,-905,18.6,20.3,-4.6,19.0,20.6,-4.1,5.73,2.41,-24.5,25.2
2013-05-23 00:12:00,0.0,1.9000,0.0007,408.47,0.34,201.4,34.9,138.16,25.80,24.62,36.33,0.04,-272.75,-272.75,-36,551,-905,18.6,20.3,-4.6,19.0,20.6,-4.1,5.73,2.34,-24.5,25.2
2013-05-23 00:13:00,0.0,1.9005,0.0010,408.60,0.32,211.8,36.4,138.16,25.80,24.62,36.31,0.04,-272.76,-272.75,-36,551,-905,18.6,20.6,-4.4,19.0,20.8,-3.9,5.73,2.32,-24.5,25.2
2013-05-23 00:14:00,0.0,1.9003,0.0008,408.58,0.28,210.5,36.8,138.16,25.80,24.62,36.32,0.04,-272.76,-272.75,-36,551,-905,18.6,20.7,-4.3,19.1,20.9,-3.8,5.73,2.42,-24.5,25.2
2013-05-23 00:15:00,0.0,1.9005,0.0008,408.52,0.28,201.1,29.6,138.16,25.81,24.62,36.32,0.04,-272.75,-272.75,-36,551,-905,18.6,20.6,-4.4,19.1,20.8,-3.9,5.73,2.29,-24.5,25.2
2013-05-23 00:16:00,0.0,1.9008,0.0011,408.62,0.30,201.9,33.4,138.16,25.81,24.62,36.32,0.04,-272.75,-272.75,-36,551,-905,18.6,21.6,-3.8,19.1,21.8,-3.3,5.73,2.37,-24.5,25.2
2013-05-23 00:17:00,0.0,1.9007,0.0010,408.68,0.32,197.6,32.1,138.16,25.82,24.62,36.31,0.04,-272.76,-272.76,-36,551,-905,18.6,21.0,-4.2,19.1,21.3,-3.6,5.73,2.39,-24.5,25.2
2013-05-23 00:18:00,0.0,1.9002,0.0010,408.59,0.29,205.3,29.8,138.16,25.82,24.62,36.31,0.04,-272.75,-272.75,-36,551,-905,18.6,20.3,-4.6,19.1,20.5,-4.1,5.73,2.29,-24.5,25.2
2013-05-23 00:19:00,0.0,1.9004,0.0009,408.53,0.20,206.9,40.1,138.16,25.82,24.62,36.32,0.04,-272.75,-272.75,-36,551,-905,18.6,20.2,-4.6,19.1,20.5,-4.1,5.73,2.42,-24.5,25.2
2013-05-23 00:20:00,0.0,1.8998,0.0009,408.58,0.26,198.8,30.1,138.16,25.83,24.63,36.32,0.04,-272.76,-272.75,-36,551,-905,18.6,20.3,-4.6,19.1,20.6,-4.0,5.73,2.32,-24.5,25.2
2013-05-23 00:21:00,0.0,1.9002,0.0008,408.48,0.29,205.2,31.2,138.16,25.83,24.62,36.33,0.04,-272.75,-272.76,-36,551,-905,18.6,20.5,-4.5,19.1,20.7,-4.0,5.73,2.34,-24.5,25.2
2013-05-23 00:22:00,0.0,1.9003,0.0010,408.61,0.29,205.2,31.4,138.16,25.84,24.62,36.31,0.04,-272.75,-272.75,-36,551,-905,18.6,20.5,-4.4,19.1,20.8,-3.9,5.73,2.41,-24.5,25.3
2013-05-23 00:23:00,0.0,1.9002,0.0007,408.52,0.28,202.3,33.6,138.16,25.84,24.62,36.32,0.04,-272.75,-272.76,-36,551,-905,18.6,20.6,-4.4,19.1,20.8,-3.8,5.73,2.28,-24.4,25.3
2013-05-23 00:24:00,0.0,1.9005,0.0006,408.71,0.28,202.0,36.3,138.16,25.85,24.62,36.31,0.04,-272.75,-272.76,-36,551,-905,18.7,21.5,-3.8,19.1,21.7,-3.3,5.73,2.40,-24.4,25.3
2013-05-23 00:25:00,0.0,1.9003,0.0008,408.57,0.24,207.8,37.5,138.16,25.85,24.62,36.32,0.04,-272.75,-272.76,-36,551,-905,18.7,20.8,-4.3,19.1,21.0,-3.7,5.73,2.35,-24.4,25.3
2013-05-23 00:26:00,0.0,1.9001,0.0009,408.48,0.30,199.2,32.6,138.16,25.85,24.62,36.32,0.04,-272.76,-272.75,-36,551,-905,18.7,20.3,-4.6,19.1,20.6,-4.0,5.73,2.31,-24.4,25.3
2013-05-23 00:27:00,0.0,1.8999,0.0009,408.45,0.26,204.0,34.6,138.16,25.86,24.62,36.32,0.04,-272.76,-272.75,-36,551,-905,18.7,19.7,-5.0,19.1,19.9,-4.4,5.73,2.42,-24.4,25.3
2013-05-23 00:28:00,0.0,1.9001,0.0007,408.57,0.23,208.7,33.8,138.16,25.87,24.62,36.32,0.04,-272.76,-272.76,-36,552,-905,18.7,20.2,-4.6,19.2,20.4,-4.1,5.73,2.29,-24.4,25.3
2013-05-23 00:29:00,0.0,1.9003,0.0008,408.64,0.27,203.6,35.1,138.15,25.87,24.62,36.31,0.04,-272.75,-272.76,-36,551,-905,18.7,20.1,-4.7,19.2,20.3,-4.1,5.73,2.38,-24.4,25.3
2013-05-23 00:30:00,0.0,1.9002,0.0009,408.62,0.29,201.9,33.9,138.16,25.87,24.62,36.32,0.04,-272.76,-272.75,-36,551,-905,18.7,19.9,-4.8,19.2,20.1,-4.3,5.73,2.38,-24.4,25.3
2013-05-23 00:31:00,0.0,1.9002,0.0010,408.48,0.27,200.8,30.2,138.15,25.88,24.62,36.32,0.04,-272.76,-272.76,-36,551,-905,18.7,19.6,-5.0,19.2,19.9,-4.4,5.73,2.29,-24.4,25.3
2013-05-23 00:32:00,0.0,1.9002,0.0008,408.49,0.31,208.0,31.0,138.15,25.88,24.62,36.32,0.04,-272.75,-272.76,-36,551,-905,18.7,19.6,-4.9,19.2,19.9,-4.4,5.73,2.42,-24.4,25.3
2013-05-23 00:33:00,0.0,1.8999,0.0007,408.47,0.34,209.0,36.7,138.15,25.88,24.62,36.32,0.04,-272.76,-272.76,-36,552,-905,18.8,19.9,-4.7,19.2,20.1,-4.2,5.73,2.32,-24.4,25.3
2013-05-23 00:34:00,0.0,1.9000,0.0010,408.58,0.28,214.3,27.9,138.15,25.89,24.62,36.31,0.04,-272.75,-272.76,-36,552,-905,18.8,20.1,-4.6,19.2,20.3,-4.1,5.73,2.34,-24.4,25.4
2013-05-23 00:35:00,0.0,1.9003,0.0009,408.56,0.34,211.0,28.2,138.16,25.89,24.62,36.32,0.04,-272.76,-272.75,-36,552,-905,18.8,20.4,-4.4,19.2,20.6,-3.9,5.73,2.41,-24.4,25.4
2013-05-23 00:36:00,0.0,1.8999,0.0009,408.51,0.33,206.9,32.7,138.15,25.89,24.62,36.32,0.04,-272.75,-272.75,-36,552,-905,18.8,20.0,-4.6,19.2,20.2,-4.1,5.73,2.28,-24.4,25.4
2013-05-23 00:37:00,0.0,1.9003,0.0008,408.51,0.28,216.7,30.0,138.16,25.90,24.62,36.32,0.04,-272.76,-272.76,-36,552,-905,18.8,20.3,-4.5,19.2,20.5,-3.9,5.73,2.41,-24.4,25.4
2013-05-23 00:38:00,0.0,1.9003,0.0008,408.64,0.32,207.8,35.1,138.15,25.90,24.62,36.32,0.04,-272.76,-272.76,-36,551,-905,18.8,20.5,-4.3,19.2,20.7,-3.8,5.73,2.35,-24.4,25.4
2013-05-23 00:39:00,0.0,1.9007,0.0009,408.66,0.33,209.3,32.5,138.15,25.90,24.62,36.32,0.04,-272.75,-272.75,-36,552,-905,18.8,21.0,-4.0,19.2,21.2,-3.5,5.73,2.31,-24.4,25.4
2013-05-23 00:40:00,0.0,1.9005,0.0009,408.57,0.33,206.4,30.5,138.15,25.91,24.62,36.32,0.04,-272.75,-272.76,-36,552,-905,18.8,20.9,-4.0,19.2,21.2,-3.5,5.73,2.42,-24.3,25.4
2013-05-23 00:41:00,0.0,1.9002,0.0007,408.65,0.32,211.8,34.7,138.15,25.91,24.62,36.31,0.04,-272.75,-272.75,-36,552,-906,18.8,20.3,-4.4,19.2,20.5,-3.9,5.73,2.29,-24.4,25.4
2013-05-23 00:42:00,0.0,1.9003,0.0010,408.62,0.25,212.5,35.4,138.15,25.91,24.62,36.32,0.04,-272.75,-272.76,-36,552,-905,18.8,20.9,-4.1,19.2,21.1,-3.6,5.73,2.38,-24.3,25.4
2013-05-23 00:43:00,0.0,1.9000,0.0008,408.58,0.27,208.1,31.5,138.15,25.92,24.62,36.31,0.04,-272.75,-272.76,-36,552,-905,18.8,20.2,-4.5,19.2,20.5,-4.0,5.73,2.38,-24.3,25.4
2013-05-23 00:44:00,0.0,1.9004,0.0008,408.59,0.28,214.3,37.5,138.15,25.92,24.62,36.32,0.04,-272.76,-272.76,-36,552,-905,18.8,20.1,-4.6,19.2,20.3,-4.1,5.73,2.30,-24.4,25.3
2013-05-23 00:45:00,0.0,1.9003,0.0008,408.62,0.28,202.2,39.4,138.15,25.93,24.62,36.32,0.04,-272.76,-272.75,-36,552,-905,18.8,20.2,-4.5,19.2,20.5,-4.0,5.73,2.42,-24.3,25.4
2013-05-23 00:46:00,0.0,1.9000,0.0009,408.57,0.26,207.1,28.6,138.15,25.93,24.62,36.32,0.04,-272.75,-272.75,-36,552,-905,18.8,20.3,-4.4,19.3,20.6,-3.9,5.73,2.30,-24.4,25.4
2013-05-23 00:47:00,0.0,1.9004,0.0007,408.61,0.31,210.1,29.2,138.15,25.94,24.62,36.32,0.04,-272.76,-272.75,-36,552,-905,18.8,20.1,-4.6,19.3,20.3,-4.1,5.73,2.37,-24.3,25.4
2013-05-23 00:48:00,0.0,1.9001,0.0008,408.69,0.25,204.1,31.8,138.15,25.95,24.63,36.32,0.04,-272.76,-272.76,-36,552,-905,18.8,20.6,-4.2,19.3,20.8,-3.7,5.73,2.38,-24.4,25.4
2013-05-23 00:49:00,0.0,1.9004,0.0009,408.69,0.30,202.7,32.3,138.15,25.95,24.62,36.32,0.04,-272.75,-272.76,-36,552,-905,18.8,20.9,-4.1,19.3,21.1,-3.5,5.73,2.29,-24.3,25.4
2013-05-23 00:50:00,0.0,1.9001,0.0006,408.65,0.26,214.1,34.1,138.15,25.95,24.62,36.33,0.04,-272.76,-272.76,-36,552,-905,18.8,20.7,-4.2,19.3,21.0,-3.6,5.73,2.42,-24.3,25.4
2013-05-23 00:51:00,0.0,1.9002,0.0009,408.60,0.29,213.1,28.6,138.15,25.96,24.63,36.32,0.04,-272.76,-272.76,-36,552,-905,18.8,20.6,-4.2,19.3,20.8,-3.7,5.73,2.30,-24.3,25.5
2013-05-23 00:52:00,0.0,1.9001,0.0009,408.66,0.27,206.7,33.1,138.15,25.96,24.63,36.32,0.04,-272.75,-272.76,-36,552,-905,18.8,20.8,-4.1,19.3,21.0,-3.6,5.73,2.36,-24.3,25.5
2013-05-23 00:53:00,0.0,1.9002,0.0008,408.66,0.28,199.4,35.8,138.15,25.96,24.62,36.32,0.04,-272.75,-272.75,-36,552,-905,18.8,20.9,-4.0,19.3,21.2,-3.5,5.73,2.39,-24.3,25.4
2013-05-23 00:54:00,0.0,1.9005,0.0008,408.69,0.32,199.6,40.9,138.15,25.97,24.62,36.32,0.04,-272.75,-272.76,-36,552,-905,18.8,20.4,-4.4,19.3,20.7,-3.8,5.73,2.28,-24.3,25.4
2013-05-23 00:55:00,0.0,1.9002,0.0008,408.64,0.31,198.2,28.7,138.15,25.97,24.62,36.32,0.04,-272.76,-272.75,-36,552,-905,18.8,20.6,-4.2,19.3,20.8,-3.7,5.73,2.42,-24.3,25.4
2013-05-23 00:56:00,0.0,1.9006,0.0008,408.60,0.28,197.3,30.4,138.15,25.97,24.62,36.33,0.04,-272.75,-272.75,-36,552,-905,18.8,20.5,-4.3,19.3,20.8,-3.7,5.73,2.30,-24.3,25.5
2013-05-23 00:57:00,0.0,1.9004,0.0010,408.63,0.31,198.0,31.9,138.15,25.98,24.63,36.32,0.04,-272.75,-272.75,-36,552,-905,18.8,20.7,-4.2,19.3,20.9,-3.7,5.73,2.37,-24.3,25.5
2013-05-23 00:58:00,0.0,1.9004,0.0009,408.66,0.31,205.0,37.7,138.15,25.98,24.62,36.32,0.04,-272.76,-272.76,-36,552,-905,18.8,21.0,-4.0,19.3,21.2,-3.4,5.73,2.39,-24.3,25.5
2013-05-23 00:59:00,0.0,1.9002,0.0008,408.62,0.30,203.0,34.1,138.15,25.98,24.62,36.32,0.04,-272.75,-272.75,-36,552,-905,18.8,21.0,-3.9,19.3,21.3,-3.4,5.73,2.29,-24.3,25.5
2013-05-23 01:00:00,0.0,1.9003,0.0008,408.71,0.25,215.7,38.2,138.15,25.99,24.62,36.32,0.04,-272.76,-272.75,-36,552,-905,18.8,21.0,-4.0,19.3,21.2,-3.4,5.73,2.43,-24.3,25.4
2013-05-23 01:01:00,0.0,1.9001,0.0009,408.65,0.31,207.1,32.2,138.15,25.99,24.63,36.32,0.04,-272.76,-272.76,-36,552,-905,18.8,21.0,-3.9,19.3,21.2,-3.4,5.73,2.30,-24.3,25.5
2013-05-23 01:02:00,0.0,1.9001,0.0009,408.62,0.30,211.4,31.1,138.15,26.00,24.63,36.32,0.04,-272.75,-272.76,-37,552,-905,18.9,20.8,-4.1,19.3,21.0,-3.5,5.73,2.37,-24.3,25.5
2013-05-23 01:03:00,0.0,1.9000,0.0008,408.65,0.28,204.2,31.5,138.15,26.00,24.62,36.32,0.04,-272.75,-272.76,-36,552,-905,18.9,20.6,-4.2,19.3,20.8,-3.7,5.73,2.38,-24.3,25.4
2013-05-23 01:04:00,0.0,1.8997,0.0009,408.69,0.22,207.0,33.3,138.15,26.00,24.63,36.32,0.04,-272.76,-272.76,-36,552,-905,18.9,20.9,-4.0,19.3,21.1,-3.5,5.73,2.29,-24.3,25.5
2013-05-23 01:05:00,0.0,1.9002,0.0009,408.64,0.30,206.8,38.6,138.15,26.01,24.62,36.32,0.04,-272.75,-272.76,-37,552,-905,18.8,20.4,-4.4,19.3,20.6,-3.8,5.73,2.42,-24.3,25.5
2013-05-23 01:06:00,0.0,1.8999,0.0008,408.63,0.28,208.3,37.4,138.15,26.01,24.63,36.32,0.04,-272.75,-272.75,-36,552,-905,18.9,20.4,-4.3,19.3,20.6,-3.8,5.73,2.29,-24.3,25.5
2013-05-23 01:07:00,0.0,1.9002,0.0009,408.63,0.25,204.8,32.1,138.15,26.02,24.62,36.32,0.04,-272.75,-272.75,-36,552,-905,18.9,20.8,-4.1,19.3,21.0,-3.6,5.73,2.38,-24.3,25.5
2013-05-23 01:08:00,0.0,1.9003,0.0009,408.57,0.26,208.1,34.7,138.15,26.02,24.62,36.33,0.04,-272.75,-272.76,-36,552,-905,18.9,20.8,-4.0,19.3,21.1,-3.5,5.73,2.38,-24.3,25.4
2013-05-23 01:09:00,0.0,1.8997,0.0008,408.61,0.30,219.3,32.9,138.15,26.03,24.63,36.33,0.04,-272.75,-272.75,-36,552,-905,18.9,20.6,-4.2,19.3,20.9,-3.6,5.73,2.30,-24.3,25.5
2013-05-23 01:10:00,0.0,1.9003,0.0008,408.67,0.28,213.1,37.2,138.15,26.03,24.62,36.32,0.04,-272.76,-272.75,-36,552,-905,18.9,20.5,-4.2,19.4,20.8,-3.7,5.73,2.42,-24.3,25.5
2013-05-23 01:11:00,0.0,1.9002,0.0010,408.60,0.27,199.1,31.4,138.15,26.03,24.62,36.33,0.04,-272.75,-272.76,-37,552,-905,18.9,20.7,-4.1,19.4,21.0,-3.5,5.73,2.28,-24.3,25.5
2013-05-23 01:12:00,0.0,1.9001,0.0008,408.64,0.27,200.2,34.0,138.15,26.04,24.63,36.32,0.04,-272.75,-272.75,-36,553,-906,18.9,20.3,-4.3,19.3,20.6,-3.8,5.73,2.38,-24.3,25.5
2013-05-23 01:13:00,0.0,1.9003,0.0009,408.68,0.26,209.5,40.1,138.15,26.05,24.62,36.32,0.04,-272.76,-272.75,-36,553,-905,18.9,20.3,-4.4,19.3,20.5,-3.8,5.73,2.36,-24.3,25.5
2013-05-23 01:14:00,0.0,1.8999,0.0007,408.62,0.31,205.6,36.3,138.15,26.05,24.63,36.32,0.04,-272.75,-272.76,-36,553,-905,18.9,20.6,-4.2,19.4,20.8,-3.7,5.73,2.31,-24.3,25.5
2013-05-23 01:15:00,0.0,1.9003,0.0009,408.65,0.30,202.6,31.6,138.15,26.06,24.62,36.32,0.04,-272.76,-272.75,-36,553,-905,18.9,20.6,-4.1,19.4,20.9,-3.6,5.73,2.42,-24.3,25.5
2013-05-23 01:16:00,0.0,1.9002,0.0009,408.67,0.25,208.4,27.5,138.15,26.06,24.63,36.32,0.04,-272.75,-272.76,-36,552,-905,18.9,20.5,-4.2,19.4,20.8,-3.7,5.73,2.28,-24.3,25.5
2013-05-23 01:17:00,0.0,1.9006,0.0011,408.67,0.32,208.9,34.7,138.15,26.07,24.62,36.33,0.04,-272.75,-272.76,-36,553,-906,18.9,20.7,-4.1,19.4,20.9,-3.6,5.73,2.40,-24.3,25.5
2013-05-23 01:18:00,0.0,1.9000,0.0008,408.55,0.26,206.0,32.6,138.15,26.07,24.63,36.33,0.04,-272.75,-272.76,-36,553,-905,18.9,20.9,-4.0,19.3,21.2,-3.4,5.73,2.34,-24.3,25.5
2013-05-23 01:19:00,0.0,1.9000,0.0008,408.72,0.30,205.1,33.0,138.15,26.08,24.63,36.32,0.04,-272.76,-272.75,-36,553,-906,18.9,20.8,-4.0,19.4,21.0,-3.5,5.73,2.32,-24.3,25.5
2013-05-23 01:20:00,0.0,1.9000,0.0008,408.64,0.27,204.4,37.1,138.15,26.08,24.63,36.33,0.04,-272.75,-272.75,-36,553,-905,18.9,21.1,-3.8,19.4,21.3,-3.3,5.73,2.42,-24.2,25.5
2013-05-23 01:21:00,0.0,1.9004,0.0009,408.60,0.32,207.5,29.2,138.15,26.09,24.62,36.33,0.04,-272.76,-272.76,-36,553,-906,19.0,21.0,-3.8,19.4,21.3,-3.4,5.73,2.28,-24.2,25.5
2013-05-23 01:22:00,0.0,1.9003,0.0009,408.58,0.32,211.2,32.8,138.15,26.09,24.63,36.33,0.04,-272.76,-272.75,-36,553,-905,19.0,21.1,-3.8,19.4,21.3,-3.3,5.73,2.41,-24.2,25.6
2013-05-23 01:23:00,0.0,1.9001,0.0009,408.72,0.26,205.6,33.2,138.15,26.10,24.63,36.32,0.04,-272.75,-272.75,-36,553,-906,19.0,20.9,-3.9,19.4,21.1,-3.4,5.73,2.33,-24.2,25.6
2013-05-23 01:24:00,0.0,1.9000,0.0007,408.57,0.28,203.2,34.2,138.15,26.10,24.63,36.33,0.04,-272.75,-272.75,-36,553,-906,19.0,20.7,-4.1,19.4,20.9,-3.6,5.73,2.34,-24.2,25.6
2013-05-23 01:25:00,0.0,1.9001,0.0008,408.66,0.25,211.4,34.1,138.15,26.11,24.63,36.33,0.04,-272.75,-272.75,-37,553,-906,19.0,20.9,-3.9,19.4,21.1,-3.4,5.73,2.40,-24.2,25.6
2013-05-23 01:26:00,0.0,1.9003,0.0010,408.64,0.23,210.1,35.0,138.15,26.11,24.62,36.32,0.04,-272.75,-272.76,-36,553,-906,19.0,20.7,-4.0,19.4,21.0,-3.5,5.73,2.28,-24.2,25.6
2013-05-23 01:27:00,0.0,1.9001,0.0010,408.74,0.29,213.1,35.2,138.15,26.12,24.62,36.32,0.04,-272.75,-272.75,-36,553,-906,19.0,20.6,-4.1,19.4,20.8,-3.6,5.73,2.42,-24.2,25.6
2013-05-23 01:28:00,0.0,1.8998,0.0008,408.65,0.25,218.4,31.4,138.15,26.12,24.63,36.32,0.04,-272.76,-272.75,-37,553,-906,19.0,20.3,-4.3,19.4,20.5,-3.8,5.73,2.31,-24.2,25.6
2013-05-23 01:29:00,0.0,1.9001,0.0008,408.69,0.28,218.0,31.0,138.15,26.13,24.63,36.32,0.04,-272.75,-272.75,-36,553,-906,19.0,20.4,-4.2,19.4,20.6,-3.7,5.73,2.36,-24.2,25.6
2013-05-23 01:30:00,0.0,1.8996,0.0009,408.59,0.26,210.4,35.4,138.15,26.13,24.63,36.33,0.04,-272.75,-272.75,-36,553,-906,19.0,20.7,-4.0,19.4,21.0,-3.5,5.73,2.39,-24.2,25.6
2013-05-23 01:31:00,0.0,1.8998,0.0008,408.71,0.30,210.5,36.7,138.15,26.13,24.63,36.33,0.04,-272.75,-272.76,-37,553,-906,19.0,20.9,-3.9,19.4,21.1,-3.4,5.73,2.29,-24.2,25.6
2013-05-23 01:32:00,0.0,1.8997,0.0010,408.62,0.28,219.4,32.2,138.15,26.13,24.63,36.33,0.04,-272.76,-272.75,-36,553,-906,19.0,20.6,-4.0,19.4,20.9,-3.5,5.73,2.42,-24.2,25.6
2013-05-23 01:33:00,0.0,1.9001,0.0008,408.65,0.30,214.2,33.7,138.15,26.14,24.62,36.33,0.04,-272.75,-272.75,-37,553,-906,19.0,20.8,-3.9,19.5,21.1,-3.4,5.73,2.29,-24.2,25.6
2013-05-23 01:34:00,0.0,1.9001,0.0008,408.65,0.28,210.7,40.0,138.15,26.14,24.62,36.33,0.04,-272.75,-272.76,-37,553,-906,19.0,20.7,-4.0,19.5,20.9,-3.5,5.73,2.38,-24.2,25.6
2013-05-23 01:35:00,0.0,1.8997,0.0010,408.76,0.30,208.9,29.4,138.15,26.15,24.63,36.32,0.04,-272.75,-272.76,-36,553,-906,19.0,20.5,-4.1,19.4,20.7,-3.6,5.73,2.36,-24.2,25.6
2013-05-23 01:36:00,0.0,1.8999,0.0008,408.81,0.29,213.9,28.5,138.15,26.15,24.63,36.32,0.04,-272.75,-272.75,-37,553,-906,19.0,20.8,-3.9,19.5,21.0,-3.4,5.73,2.31,-24.2,25.6
2013-05-23 01:37:00,0.0,1.9000,0.0010,408.64,0.27,214.0,36.3,138.15,26.16,24.63,36.33,0.04,-272.75,-272.75,-36,553,-906,19.0,21.3,-3.6,19.5,21.5,-3.1,5.73,2.42,-24.2,25.6
2013-05-23 01:38:00,0.0,1.9002,0.0009,408.73,0.27,213.5,33.5,138.15,26.16,24.62,36.32,0.04,-272.76,-272.75,-36,553,-906,19.0,20.8,-3.9,19.5,21.0,-3.4,5.73,2.28,-24.2,25.7
2013-05-23 01:39:00,0.0,1.8998,0.0009,408.63,0.25,218.7,36.8,138.15,26.16,24.62,36.33,0.04,-272.75,-272.75,-37,553,-906,19.1,20.3,-4.2,19.5,20.5,-3.7,5.73,2.41,-24.2,25.7
2013-05-23 01:40:00,0.0,1.9002,0.0008,408.56,0.32,206.8,35.3,138.15,26.17,24.62,36.33,0.04,-272.75,-272.75,-36,553,-906,19.1,20.3,-4.2,19.5,20.6,-3.7,5.73,2.33,-24.2,25.6
2013-05-23 01:41:00,0.0,1.8995,0.0007,408.62,0.25,207.5,29.8,138.15,26.17,24.63,36.32,0.04,-272.75,-272.76,-36,553,-906,19.1,20.4,-4.1,19.5,20.6,-3.6,5.73,2.33,-24.2,25.7
2013-05-23 01:42:00,0.0,1.8998,0.0009,408.53,0.26,210.5,34.2,138.15,26.18,24.62,36.33,0.04,-272.75,-272.76,-37,553,-906,19.1,20.4,-4.1,19.5,20.7,-3.6,5.73,2.40,-24.2,25.7
2013-05-23 01:43:00,0.0,1.9000,0.0008,408.55,0.26,205.5,34.7,138.15,26.18,24.62,36.33,0.04,-272.75,-272.75,-36,553,-906,19.1,20.3,-4.2,19.5,20.6,-3.7,5.73,2.28,-24.2,25.7
2013-05-23 01:44:00,0.0,1.8995,0.0008,408.61,0.26,215.3,30.3,138.15,26.18,24.63,36.33,0.04,-272.75,-272.75,-36,553,-906,19.1,20.8,-3.9,19.5,21.0,-3.4,5.73,2.42,-24.1,25.7
2013-05-23 01:45:00,0.0,1.8998,0.0008,408.58,0.27,209.5,31.8,138.15,26.19,24.63,36.33,0.04,-272.76,-272.76,-37,553,-906,19.1,20.8,-3.9,19.5,21.1,-3.3,5.73,2.30,-24.2,25.7
2013-05-23 01:46:00,0.0,1.8997,0.0009,408.76,0.31,205.4,29.7,138.15,26.19,24.62,36.32,0.04,-272.75,-272.75,-36,553,-906,19.1,20.5,-4.1,19.5,20.8,-3.5,5.73,2.37,-24.2,25.7
2013-05-23 01:47:00,0.0,1.8997,0.0011,408.67,0.28,210.0,34.0,138.15,26.20,24.63,36.33,0.04,-272.75,-272.75,-37,553,-906,19.1,20.7,-3.9,19.5,20.9,-3.4,5.73,2.37,-24.1,25.8
2013-05-23 01:48:00,0.0,1.8993,0.0010,408.73,0.28,219.2,32.4,138.15,26.20,24.63,36.33,0.04,-272.75,-272.76,-37,553,-906,19.1,20.9,-3.8,19.5,21.2,-3.3,5.73,2.30,-24.1,25.7
2013-05-23 01:49:00,0.0,1.8997,0.0009,408.62,0.30,214.7,34.5,138.15,26.21,24.62,36.33,0.04,-272.75,-272.76,-36,554,-906,19.1,20.5,-4.1,19.5,20.7,-3.6,5.73,2.42,-24.1,25.7
2013-05-23 01:50:00,0.0,1.8995,0.0009,408.61,0.27,214.1,31.5,138.15,26.21,24.62,36.33,0.04,-272.75,-272.75,-37,553,-906,19.1,20.6,-4.0,19.5,20.9,-3.5,5.73,2.28,-24.1,25.7
2013-05-23 01:51:00,0.0,1.8994,0.0008,408.66,0.28,206.0,32.7,138.15,26.22,24.63,36.33,0.04,-272.76,-272.76,-36,554,-906,19.1,20.3,-4.2,19.6,20.5,-3.7,5.73,2.40,-24.1,25.7
2013-05-23 01:52:00,0.0,1.8992,0.0008,408.70,0.24,215.8,33.2,138.15,26.22,24.63,36.32,0.04,-272.75,-272.75,-36,554,-906,19.1,20.6,-4.0,19.5,20.8,-3.5,5.73,2.33,-24.1,25.7
2013-05-23 01:53:00,0.0,1.8996,0.0007,408.73,0.32,208.1,36.4,138.15,26.22,24.62,36.32,0.04,-272.75,-272.75,-37,553,-906,19.1,20.9,-3.8,19.6,21.2,-3.2,5.73,2.33,-24.1,25.8
2013-05-23 01:54:00,0.0,1.8991,0.0009,408.65,0.25,217.1,31.8,138.15,26.23,24.63,36.33,0.04,-272.75,-272.76,-36,554,-906,19.1,21.2,-3.6,19.6,21.4,-3.1,5.73,2.40,-24.1,25.8
2013-05-23 01:55:00,0.0,1.8994,0.0008,408.61,0.27,216.5,34.2,138.15,26.23,24.63,36.33,0.04,-272.75,-272.75,-36,554,-906,19.2,21.0,-3.7,19.6,21.3,-3.2,5.73,2.28,-24.1,25.8
2013-05-23 01:56:00,0.0,1.8995,0.0008,408.68,0.25,212.8,31.8,138.15,26.24,24.63,36.33,0.04,-272.75,-272.76,-37,554,-906,19.2,21.5,-3.4,19.6,21.7,-2.9,5.73,2.42,-24.1,25.8
2013-05-23 01:57:00,0.0,1.8993,0.0008,408.55,0.29,211.7,36.4,138.15,26.24,24.63,36.33,0.04,-272.75,-272.75,-36,554,-906,19.2,21.3,-3.5,19.6,21.6,-3.0,5.73,2.30,-24.1,25.8
2013-05-23 01:58:00,0.0,1.8992,0.0009,408.73,0.35,212.3,33.4,138.15,26.25,24.63,36.32,0.04,-272.75,-272.76,-37,554,-906,19.2,20.8,-3.8,19.6,21.1,-3.3,5.73,2.37,-24.1,25.8
2013-05-23 01:59:00,0.0,1.8995,0.0009,408.58,0.22,211.8,31.9,138.14,26.25,24.62,36.33,0.04,-272.75,-272.75,-37,554,-906,19.2,21.0,-3.7,19.6,21.3,-3.2,5.73,2.36,-24.1,25.8
2013-05-23 02:00:00,0.0,1.8996,0.0008,408.68,0.29,213.4,34.2,138.14,26.26,24.63,36.33,0.04,-272.75,-272.76,-36,554,-906,19.2,21.3,-3.5,19.6,21.6,-2.9,5.73,2.31,-24.1,25.8
2013-05-23 02:01:00,0.0,1.8996,0.0010,408.61,0.27,220.8,30.9,138.15,26.26,24.63,36.33,0.04,-272.75,-272.76,-37,554,-906,19.2,21.2,-3.5,19.6,21.5,-3.0,5.73,2.42,-24.0,25.8
2013-05-23 02:02:00,0.0,1.8989,0.0009,408.52,0.29,219.0,35.3,138.15,26.26,24.63,36.34,0.04,-272.75,-272.76,-36,554,-906,19.2,21.1,-3.5,19.6,21.5,-3.0,5.73,2.28,-24.0,25.9
2013-05-23 02:03:00,0.0,1.8995,0.0008,408.74,0.27,217.8,26.3,138.14,26.26,24.63,36.32,0.04,-272.75,-272.76,-36,554,-906,19.3,21.2,-3.5,19.6,21.5,-3.0,5.73,2.41,-24.0,25.9
2013-05-23 02:04:00,0.0,1.8995,0.0010,408.69,0.25,223.2,35.1,138.15,26.27,24.63,36.32,0.04,-272.75,-272.76,-37,554,-906,19.3,21.3,-3.4,19.6,21.6,-2.9,5.73,2.33,-24.0,25.9
2013-05-23 02:05:00,0.0,1.8995,0.0009,408.59,0.24,219.2,32.6,138.14,26.27,24.63,36.33,0.04,-272.75,-272.76,-36,554,-906,19.3,21.6,-3.2,19.7,22.0,-2.6,5.73,2.34,-24.0,25.9
2013-05-23 02:06:00,0.0,1.8995,0.0009,408.60,0.29,222.4,32.5,138.14,26.28,24.63,36.33,0.04,-272.75,-272.76,-36,554,-906,19.3,21.4,-3.3,19.7,21.8,-2.7,5.73,2.39,-24.0,25.9
2013-05-23 02:07:00,0.0,1.8994,0.0008,408.54,0.27,222.2,26.0,138.15,26.28,24.63,36.33,0.04,-272.75,-272.75,-37,554,-906,19.3,21.1,-3.5,19.7,21.5,-2.9,5.73,2.29,-24.0,25.9
2013-05-23 02:08:00,0.0,1.8993,0.0009,408.67,0.25,216.4,30.9,138.15,26.29,24.63,36.33,0.04,-272.75,-272.75,-36,554,-907,19.3,21.3,-3.3,19.7,21.7,-2.8,5.73,2.42,-24.0,25.9
2013-05-23 02:09:00,0.0,1.8995,0.0010,408.60,0.25,222.4,34.5,138.14,26.29,24.63,36.33,0.04,-272.75,-272.76,-37,554,-906,19.4,20.9,-3.6,19.7,21.3,-3.0,5.73,2.29,-24.0,25.9
2013-05-23 02:10:00,0.0,1.8998,0.0008,408.71,0.30,221.3,33.1,138.15,26.30,24.63,36.32,0.04,-272.75,-272.75,-37,554,-906,19.4,20.9,-3.6,19.7,21.2,-3.1,5.73,2.38,-24.0,25.9
2013-05-23 02:11:00,0.0,1.8994,0.0009,408.63,0.26,217.2,31.5,138.14,26.30,24.63,36.33,0.04,-272.76,-272.75,-36,555,-907,19.4,21.2,-3.4,19.7,21.6,-2.9,5.73,2.35,-24.0,26.0
2013-05-23 02:12:00,0.0,1.8999,0.0010,408.66,0.29,213.4,35.9,138.14,26.31,24.63,36.33,0.04,-272.75,-272.76,-37,554,-907,19.4,21.3,-3.3,19.7,21.7,-2.8,5.73,2.31,-24.0,26.0
2013-05-23 02:13:00,0.0,1.8997,0.0009,408.57,0.30,219.5,35.6,138.14,26.32,24.63,36.34,0.04,-272.76,-272.76,-37,554,-907,19.4,21.3,-3.3,19.7,21.7,-2.8,5.73,2.41,-24.0,26.0
2013-05-23 02:14:00,0.0,1.9001,0.0009,408.59,0.23,217.3,27.9,138.14,26.32,24.62,36.33,0.04,-272.75,-272.76,-36,554,-907,19.4,21.1,-3.4,19.8,21.5,-2.9,5.73,2.28,-24.0,26.0
2013-05-23 02:15:00,0.0,1.9001,0.0008,408.59,0.24,218.1,31.6,138.14,26.33,24.62,36.33,0.04,-272.75,-272.76,-37,554,-906,19.5,20.7,-3.6,19.8,21.1,-3.1,5.73,2.41,-24.0,25.9
2013-05-23 02:16:00,0.0,1.9000,0.0008,408.57,0.26,223.3,35.8,138.14,26.33,24.63,36.33,0.04,-272.75,-272.76,-37,555,-906,19.5,20.9,-3.5,19.8,21.3,-3.0,5.73,2.31,-23.9,26.0